Regional Weather Roundup
Issued by NWS

Home | Current Version | Previous Version | Graphics & Text | Print | Product List | Glossary On
Versions: 1 2 3 4 5 6 7 8 9 10 11 12 13 14 15 16 17 18 19 20 21 22 23 24 25 26 27 28 29 30 31 32 33 34 35 36 37 38 39 40 41 42 43 44 45 46 47 48 49 50
000
ASUS43 KIND 240159
RWRIN

WEATHER ROUNDUP FOR INDIANA
NATIONAL WEATHER SERVICE INDIANAPOLIS IN
1000 PM EDT MON APR 23 2018

NOTE: "FAIR" INDICATES FEW OR NO CLOUDS BELOW 12,000 FEET WITH NO
SIGNIFICANT WEATHER AND/OR OBSTRUCTIONS TO VISIBILITY.

* - STATION DOES NOT REPORT WEATHER SUCH AS PRECIPITATION OR FOG.

+ - STATION NOT QUALITY CONTROLLED BY THE NATIONAL WEATHER SERVICE.
    USE DATA WITH CAUTION...ESPECIALLY DEWPOINT AND RELATIVE
    HUMIDITY OBSERVATIONS.

INZ001>003-010>013-019-020-240300-
NORTHWEST INDIANA

CITY           SKY/WX    TMP DP  RH WIND       PRES   REMARKS
GARY /AIRPORT/ MOCLDY    46  36  66 CALM      30.12S
KNOX *+        CLOUDY    55  52  88 SE8       30.10R
MONTICELLO +   CLOUDY    54  53  95 E9        30.07S
RENSSELAER +   RAIN      54  50  87 E10       30.09R

$$

LMZ046-743>745-240300-
SOUTHERN LAKE MICHIGAN

STATION/POSITION TIME  TEMP    WIND        PRES    WAVE
                       AIR SEA DIR/SP/G            HT
                 (UTC) (F)     (DEG/KT/KT) (MB)    (FT)
BURNS HARBOR     0140   42     360/  1/  3 1020.3S
MICHIGAN CITY    0130   43     360/  3/  3   N/A

$$

INZ004-005-014>016-021>024-240300-
NORTH CENTRAL INDIANA

CITY           SKY/WX    TMP DP  RH WIND       PRES   REMARKS
GOSHEN         CLOUDY    58  50  75 SE13      30.13R
ROCHESTER +    DRIZZLE   55  54  94 SE12      30.11S
SOUTH BEND     CLOUDY    56  51  84 E5        30.13R
WARSAW +       CLOUDY    54  48  82 SE8       30.13R

$$

INZ006>009-017-018-025>027-240300-
NORTHEAST INDIANA

CITY           SKY/WX    TMP DP  RH WIND       PRES   REMARKS
ANGOLA *+      MOCLDY    55  46  71 SE15      30.15R
FORT WAYNE     LGT RAIN  52  51  97 SE13      30.15R FOG
KENDALLVILLE +   N/A     55  44  67 SE16      30.15R

$$

INZ028-029-035-036-043>045-051>053-240300-
WEST CENTRAL INDIANA

CITY           SKY/WX    TMP DP  RH WIND       PRES   REMARKS
GREENCASTLE +  CLOUDY    54  50  87 E9        30.03S
LAFAYETTE      CLOUDY    54  54 100 E9        30.06R
TERRE HAUTE    CLOUDY    56  54  93 E8        30.00S

$$

INZ030>032-037>040-046>048-054>057-064-065-240300-
CENTRAL INDIANA

CITY           SKY/WX    TMP DP  RH WIND       PRES   REMARKS
COLUMBUS       CLOUDY    54 N/A N/A E14       30.04S
GREENWOOD *+   CLOUDY    54  50  89 E10       30.05S
INDIANAPOLIS   CLOUDY    54  51  90 E14       30.04R
-EAGLE CREEK   CLOUDY    55  50  83 E10       30.05R
KOKOMO +       CLOUDY    53  51  93 E13       30.09S
MT COMFORT *+  CLOUDY    52  52 100 E12G21    30.06S
SHELBYVILLE    CLOUDY    55  49  80 E13       30.04S
ZIONSVILLE +   CLOUDY    52  51  94 E12       30.07R

$$

INZ033-034-041-042-049-050-058-059-240300-
EAST CENTRAL INDIANA

CITY           SKY/WX    TMP DP  RH WIND       PRES   REMARKS
MUNCIE         CLOUDY    53  48  83 SE13      30.09S
RICHMOND +     CLOUDY    50  50 100 E14       30.09S

$$

INZ060-061-067>069-081>083-085>088-240300-
SOUTHWEST INDIANA

CITY           SKY/WX    TMP DP  RH WIND       PRES   REMARKS
EVANSVILLE     FAIR      58  56  93 CALM      29.96R
HUNTINGBURG +  CLOUDY    60  54  80 E10       29.96R

$$

INZ062-063-066-070>080-084-089>092-240300-
SOUTH CENTRAL AND SOUTHEAST INDIANA

CITY           SKY/WX    TMP DP  RH WIND       PRES   REMARKS
BLOOMINGTON    CLOUDY    56  52  86 E14       30.01R
FRENCH LICK *+ CLOUDY    57  52  82 E8        29.98S
SEYMOUR +      CLOUDY    57  50  77 E10       30.02S

$$





USA.gov is the U.S. government's official web portal to all federal, state and local government web resources and services.